N8JE-13 Weather Reports


time (UTC)temp
F
wind
direction
speed
knots
gust
knots
rain 1hr
in
rain 24hr
in
rain mn
in
humidity
%
barometer
mb
20260504184551 72 267 4.3 6.1 0.00 0.01 0.00 54 1006.8
20260504184051 72 235 8.7 11.3 0.00 0.01 0.00 53 1006.8
20260504183551 72 233 7.0 13.9 0.00 0.01 0.00 53 1006.7
20260504183050 73 250 7.8 13.9 0.00 0.01 0.00 52 1006.5
20260504182550 73 285 6.1 6.1 0.00 0.01 0.00 53 1006.4
20260504182050 72 230 6.1 7.0 0.00 0.01 0.00 51 1006.4
20260504181550 72 191 8.7 7.8 0.00 0.01 0.00 53 1006.5
20260504181052 72 231 12.2 15.6 0.00 0.01 0.00 52 1006.4
20260504180552 72 235 8.7 13.9 0.00 0.01 0.00 53 1006.3
20260504180051 72 214 7.0 15.6 0.00 0.01 0.00 53 1006.5
20260504175550 72 238 8.7 11.3 0.00 0.01 0.00 53 1006.5
20260504175050 72 250 7.0 11.3 0.00 0.01 0.00 52 1006.5
20260504174550 72 254 5.2 6.1 0.00 0.01 0.00 53 1006.6
20260504174050 72 251 5.2 13.9 0.00 0.01 0.00 52 1006.6
20260504173552 72 252 4.3 10.4 0.00 0.01 0.00 54 1006.6
20260504173051 72 257 7.8 12.2 0.00 0.01 0.00 52 1006.7
20260504172551 72 232 6.1 10.4 0.00 0.01 0.00 53 1006.7
20260504172051 71 277 5.2 10.4 0.00 0.01 0.00 54 1006.8
20260504171551 71 231 5.2 12.2 0.00 0.01 0.00 54 1006.8
20260504171050 71 243 10.4 15.6 0.00 0.01 0.00 54 1006.9
20260504170552 71 226 6.1 8.7 0.00 0.01 0.00 55 1006.8
20260504151052 64 244 7.8 12.2 0.00 0.01 0.00 63 1008.1
20260504150553 64 227 7.0 11.3 0.00 0.01 0.00 62 1008.0
20260504141052 60 246 6.1 8.7 0.00 0.01 0.00 63 1008.4
20260504140552 60 220 6.1 8.7 0.00 0.01 0.00 64 1008.5
20260504130552 57 215 6.1 7.8 0.00 0.01 0.00 65 1009.0
20260504110552 51 228 2.6 5.2 0.00 0.01 0.00 69 1008.7
20260504100552 51 223 2.6 5.2 0.00 0.01 0.00 67 1009.1
20260504081550 51 219 4.3 5.2 0.00 0.01 0.00 66 1010.0
20260504081052 52 211 2.6 4.3 0.00 0.01 0.00 65 1010.0
20260504080552 51 210 2.6 5.2 0.00 0.01 0.00 65 1010.1
20260504050550 53 218 1.7 5.2 0.00 0.01 0.00 62 1012.0
20260504045551 53 213 4.3 6.1 0.00 0.01 0.00 63 1012.0
20260504045051 53 227 1.7 2.6 0.00 0.01 0.00 63 1012.1
20260504044551 53 219 4.3 5.2 0.00 0.01 0.00 64 1012.1
20260504044050 53 208 1.7 2.6 0.00 0.01 0.00 64 1012.0
20260504043550 53 214 2.6 4.3 0.00 0.01 0.00 64 1012.1
20260504043050 52 223 1.7 4.3 0.00 0.01 0.00 64 1012.1
20260504042551 52 211 1.7 4.3 0.00 0.01 0.00 65 1012.2
20260504042051 52 200 2.6 2.6 0.00 0.01 0.00 65 1012.3
20260504041550 52 220 0.9 1.7 0.00 0.01 0.00 65 1012.4
20260504041051 52 228 1.7 2.6 0.00 0.01 0.00 66 1012.4
20260504040551 52 204 2.6 5.2 0.00 0.01 0.00 66 1012.4
20260504040051 52 196 1.7 4.3 0.00 0.01 0.00 66 1012.5
20260504035551 52 198 1.7 4.3 0.00 0.01 0.01 67 1012.5
20260504035051 52 204 2.6 5.2 0.00 0.01 0.01 67 1012.6
20260504034551 52 194 1.7 4.3 0.00 0.01 0.01 67 1012.6
20260504034050 52 185 1.7 5.2 0.00 0.01 0.01 67 1012.7
20260504033550 51 178 2.6 2.6 0.00 0.01 0.01 68 1012.8
20260504033050 51 189 1.7 4.3 0.00 0.01 0.01 67 1012.8
20260504032551 51 183 2.6 4.3 0.00 0.01 0.01 67 1012.9
20260504032051 51 198 2.6 5.2 0.00 0.01 0.01 67 1012.9
20260504031550 51 202 1.7 4.3 0.00 0.01 0.01 67 1012.9
20260504031050 51 187 2.6 2.6 0.00 0.01 0.01 67 1013.0
20260504030550 51 196 1.7 2.6 0.00 0.01 0.01 67 1013.1
20260504030052 51 188 2.6 6.1 0.00 0.01 0.01 67 1013.1
20260504025552 51 197 2.6 4.3 0.00 0.01 0.01 67 1013.1
20260504025052 51 206 2.6 2.6 0.00 0.01 0.01 67 1013.2
20260504024552 51 198 2.6 5.2 0.00 0.01 0.01 68 1013.2
20260504024051 51 209 1.7 4.3 0.00 0.01 0.01 69 1013.2
20260504023551 51 185 1.7 2.6 0.00 0.01 0.01 68 1013.2
20260504023051 51 186 1.7 2.6 0.00 0.01 0.01 69 1013.2
20260504022551 51 164 2.6 4.3 0.00 0.01 0.01 69 1013.2
20260504022052 51 190 1.7 4.3 0.00 0.01 0.01 70 1013.1
20260504021552 50 173 2.6 5.2 0.00 0.01 0.01 70 1013.2
20260504021051 50 190 1.7 5.2 0.00 0.01 0.01 71 1013.3
20260504020552 50 183 2.6 5.2 0.00 0.01 0.01 71 1013.4
20260504020052 50 223 1.7 1.7 0.00 0.01 0.01 72 1013.4
20260504015552 50 173 2.6 2.6 0.00 0.01 0.01 73 1013.3
20260504015052 50 166 2.6 5.2 0.00 0.01 0.01 73 1013.3
20260504014552 50 183 2.6 4.3 0.00 0.01 0.01 74 1013.3
20260504014052 49 163 1.7 2.6 0.00 0.01 0.01 76 1013.3
20260504013552 49 171 0.9 1.7 0.00 0.01 0.01 77 1013.3
20260504013051 49 161 0.9 1.7 0.00 0.01 0.01 77 1013.3
20260504012553 49 171 0.9 1.7 0.00 0.01 0.01 77 1013.3
20260504012052 49 167 0.9 1.7 0.00 0.01 0.01 78 1013.4
20260504011552 49 192 0.9 1.7 0.00 0.01 0.01 78 1013.3
20260504011051 49 178 0.0 0.0 0.00 0.01 0.01 78 1013.5
20260504010551 49 174 0.0 0.0 0.00 0.01 0.01 78 1013.5
20260504010051 49 182 0.9 2.6 0.00 0.01 0.01 78 1013.4
20260504005551 49 122 0.0 0.9 0.00 0.01 0.01 78 1013.3
20260504005051 49 142 0.9 1.7 0.00 0.01 0.01 78 1013.4
20260504004551 49 144 0.9 1.7 0.00 0.01 0.01 77 1013.3
20260504004051 49 142 1.7 4.3 0.00 0.01 0.01 77 1013.3
20260504003551 49 161 1.7 4.3 0.00 0.01 0.01 78 1013.5
20260504003051 49 131 0.0 0.9 0.00 0.01 0.01 79 1013.5
20260504002551 49 100 0.9 2.6 0.00 0.01 0.01 79 1013.4
20260504002051 49 150 0.9 0.9 0.00 0.01 0.01 78 1013.6
20260504001551 50 149 0.9 1.7 0.00 0.01 0.01 78 1013.8
20260504001051 50 199 0.0 0.0 0.00 0.01 0.01 78 1013.7
20260504000551 50 135 0.0 0.9 0.00 0.01 0.01 77 1013.6
20260504000050 50 131 0.9 1.7 0.00 0.01 0.01 77 1013.6
20260503235552 50 166 1.7 1.7 0.00 0.01 0.01 78 1013.6
20260503235052 50 131 1.7 1.7 0.00 0.01 0.01 78 1013.6
20260503234552 50 146 1.7 4.3 0.00 0.01 0.01 78 1013.4
20260503234052 50 130 1.7 2.6 0.00 0.01 0.01 78 1013.5
20260503233551 50 126 0.9 4.3 0.00 0.01 0.01 79 1013.6
20260503233052 50 144 0.9 2.6 0.01 0.01 0.01 79 1013.7
20260503232552 50 139 0.9 1.7 0.01 0.01 0.01 80 1013.7
20260503232052 50 133 1.7 2.6 0.01 0.01 0.01 79 1013.7
20260503231551 49 135 0.9 2.6 0.01 0.01 0.01 80 1013.8
20260503231050 49 131 1.7 4.3 0.01 0.01 0.01 80 1013.9
20260503230550 49 142 0.9 2.6 0.01 0.01 0.01 80 1014.0
20260503230052 49 147 0.0 0.0 0.01 0.01 0.01 80 1014.1
20260503225551 49 120 0.0 0.0 0.01 0.01 0.01 80 1014.2
20260503225051 49 104 0.0 0.9 0.01 0.01 0.01 80 1014.3
20260503224551 49 132 0.9 2.6 0.01 0.01 0.01 78 1014.5
20260503224051 49 109 0.0 0.0 0.01 0.01 0.01 77 1014.8
20260503223550 49 164 0.0 0.9 0.01 0.01 0.01 77 1015.2
20260503223051 49 209 0.0 0.9 0.00 0.00 0.00 77 1015.6
20260503222551 50 263 1.7 2.6 0.00 0.00 0.00 75 1015.7
20260503222051 50 259 2.6 5.2 0.00 0.00 0.00 73 1015.8
20260503221551 51 244 5.2 11.3 0.00 0.00 0.00 70 1015.8
20260503221050 51 241 4.3 7.0 0.00 0.00 0.00 67 1015.8
20260503220550 53 294 6.1 12.2 0.00 0.00 0.00 64 1015.7
20260503220052 54 236 1.7 2.6 0.00 0.00 0.00 59 1015.5
20260503215552 55 248 7.0 15.6 0.00 0.00 0.00 55 1015.5
20260503215052 55 250 4.3 5.2 0.00 0.00 0.00 53 1015.2
20260503214551 55 237 7.8 13.0 0.00 0.00 0.00 49 1015.0
20260503214050 56 261 5.2 8.7 0.00 0.00 0.00 48 1015.0
20260503213550 57 223 5.2 8.7 0.00 0.00 0.00 46 1014.9
20260503213050 58 323 7.0 13.9 0.00 0.00 0.00 42 1014.8
20260503212552 59 232 2.6 5.2 0.00 0.00 0.00 40 1014.7
20260503212052 59 283 4.3 6.1 0.00 0.00 0.00 40 1014.7
20260503211552 59 244 4.3 5.2 0.00 0.00 0.00 40 1014.6
20260503211051 59 231 4.3 5.2 0.00 0.00 0.00 40 1014.7
20260503210551 59 262 6.1 8.7 0.00 0.00 0.00 40 1014.7
20260503210052 59 240 8.7 12.2 0.00 0.00 0.00 39 1014.7
20260503205552 59 240 4.3 6.1 0.00 0.00 0.00 39 1014.7
20260503205052 59 243 4.3 7.0 0.00 0.00 0.00 39 1014.8
20260503204550 59 228 10.4 13.0 0.00 0.00 0.00 38 1014.9
20260503204050 60 244 6.1 7.8 0.00 0.00 0.00 38 1015.0
20260503203552 60 254 1.7 4.3 0.00 0.00 0.00 38 1015.0
20260503203052 60 181 2.6 5.2 0.00 0.00 0.00 40 1015.1
20260503202552 60 225 6.1 5.2 0.00 0.00 0.00 37 1015.0
20260503202051 61 227 5.2 7.8 0.00 0.00 0.00 37 1015.1
20260503201550 61 252 1.7 5.2 0.00 0.00 0.00 38 1015.2
20260503201052 61 220 7.8 18.2 0.00 0.00 0.00 36 1015.1
20260503200552 62 257 2.6 5.2 0.00 0.00 0.00 38 1015.1
20260503200052 61 239 2.6 5.2 0.00 0.00 0.00 37 1015.2
20260503195552 61 216 6.1 10.4 0.00 0.00 0.00 36 1015.3
20260503195051 61 228 1.7 5.2 0.00 0.00 0.00 37 1015.2
20260503194551 62 224 6.1 12.2 0.00 0.00 0.00 37 1015.3
20260503194051 62 254 5.2 7.0 0.00 0.00 0.00 36 1015.4
20260503193551 61 245 4.3 7.0 0.00 0.00 0.00 38 1015.5
20260503193052 62 276 2.6 6.1 0.00 0.00 0.00 36 1015.6
20260503192552 62 251 2.6 6.1 0.00 0.00 0.00 35 1015.8
20260503192050 62 243 4.3 8.7 0.00 0.00 0.00 37 1015.9
20260503191550 61 219 4.3 11.3 0.00 0.00 0.00 38 1015.7
20260503191050 61 213 6.1 8.7 0.00 0.00 0.00 37 1015.9
20260503190550 61 257 6.1 6.1 0.00 0.00 0.00 35 1016.0
20260503190052 62 221 6.1 7.0 0.00 0.00 0.00 36 1016.0
20260503185552 61 238 4.3 5.2 0.00 0.00 0.00 36 1016.2
20260503185051 62 250 7.0 7.8 0.00 0.00 0.00 37 1016.2